| time (UTC) | temp C | wind direction | speed KPH | gust KPH | rain 1hr cm | rain 24hr cm | rain mn cm | humidity % | barometer mb |
| 20260504060224 | 1 | 243 | 0.0 | 0.0 | 0.00 | 0.00 | 0.00 | 94 | 1015.9 |
| 20260504050652 | 2 | 260 | 0.0 | 0.0 | 0.00 | 0.00 | 0.00 | 93 | 1016.3 |
| 20260504050149 | 2 | 260 | 0.0 | 0.0 | 0.00 | 0.00 | 0.00 | 93 | 1016.2 |
| 20260504045646 | 2 | 260 | 0.0 | 0.0 | 0.00 | 0.00 | 0.00 | 93 | 1016.5 |
| 20260504045146 | 2 | 260 | 0.0 | 0.0 | 0.00 | 0.00 | 0.00 | 93 | 1016.3 |
| 20260504044644 | 2 | 260 | 0.0 | 0.0 | 0.00 | 0.00 | 0.00 | 93 | 1016.5 |
| 20260504044141 | 2 | 260 | 0.0 | 0.0 | 0.00 | 0.00 | 0.00 | 93 | 1016.2 |
| 20260504043638 | 2 | 260 | 0.0 | 0.0 | 0.00 | 0.00 | 0.00 | 93 | 1016.3 |
| 20260504043135 | 2 | 260 | 0.0 | 0.0 | 0.00 | 0.00 | 0.00 | 93 | 1016.2 |
| 20260504042632 | 2 | 260 | 0.0 | 0.0 | 0.00 | 0.00 | 0.00 | 92 | 1016.0 |
| 20260504042129 | 2 | 260 | 0.0 | 0.0 | 0.00 | 0.00 | 0.00 | 92 | 1016.4 |
| 20260504041625 | 2 | 260 | 0.0 | 0.0 | 0.00 | 0.00 | 0.00 | 91 | 1016.3 |
| 20260504041121 | 2 | 260 | 0.0 | 0.0 | 0.00 | 0.00 | 0.00 | 91 | 1016.2 |
| 20260504040618 | 2 | 259 | 0.0 | 0.0 | 0.00 | 0.00 | 0.00 | 90 | 1016.2 |
| 20260504040115 | 2 | 259 | 0.0 | 0.0 | 0.00 | 0.00 | 0.00 | 90 | 1016.5 |
| 20260504035612 | 2 | 259 | 0.0 | 0.0 | 0.00 | 0.00 | 0.00 | 90 | 1016.3 |
| 20260504035108 | 2 | 259 | 0.0 | 0.0 | 0.00 | 0.00 | 0.00 | 90 | 1016.2 |
| 20260504034606 | 2 | 259 | 0.0 | 0.0 | 0.00 | 0.00 | 0.00 | 90 | 1016.5 |
| 20260504034103 | 2 | 260 | 0.0 | 0.0 | 0.00 | 0.00 | 0.00 | 89 | 1016.4 |
| 20260504033601 | 2 | 260 | 0.0 | 0.0 | 0.00 | 0.00 | 0.00 | 89 | 1016.5 |
| 20260504033058 | 2 | 260 | 0.0 | 0.0 | 0.00 | 0.00 | 0.00 | 89 | 1016.5 |
| 20260504032555 | 3 | 260 | 0.0 | 0.0 | 0.00 | 0.00 | 0.00 | 88 | 1016.4 |
| 20260504032052 | 3 | 260 | 0.0 | 0.0 | 0.00 | 0.00 | 0.00 | 88 | 1016.5 |
| 20260504031549 | 3 | 260 | 0.0 | 0.0 | 0.00 | 0.00 | 0.00 | 87 | 1016.4 |
| 20260504031045 | 3 | 260 | 0.0 | 0.0 | 0.00 | 0.00 | 0.00 | 87 | 1016.3 |
| 20260504030542 | 3 | 260 | 0.0 | 0.0 | 0.00 | 0.00 | 0.00 | 86 | 1016.3 |
| 20260504030038 | 3 | 260 | 0.0 | 0.0 | 0.00 | 0.00 | 0.00 | 86 | 1016.2 |
| 20260504025536 | 3 | 260 | 0.0 | 0.0 | 0.00 | 0.00 | 0.00 | 85 | 1016.5 |
| 20260504025032 | 3 | 260 | 0.0 | 0.0 | 0.00 | 0.00 | 0.00 | 85 | 1016.3 |
| 20260504024529 | 3 | 260 | 0.0 | 0.0 | 0.00 | 0.00 | 0.00 | 84 | 1016.5 |
| 20260504024026 | 4 | 259 | 0.0 | 0.0 | 0.00 | 0.00 | 0.00 | 82 | 1016.3 |
| 20260504023523 | 4 | 259 | 0.0 | 0.0 | 0.00 | 0.00 | 0.00 | 82 | 1016.5 |
| 20260504023018 | 5 | 260 | 0.0 | 0.0 | 0.00 | 0.00 | 0.00 | 81 | 1016.6 |
| 20260504022514 | 5 | 260 | 0.0 | 0.0 | 0.00 | 0.00 | 0.00 | 81 | 1016.7 |
| 20260504022011 | 5 | 260 | 0.0 | 0.0 | 0.00 | 0.00 | 0.00 | 81 | 1016.5 |
| 20260504021509 | 5 | 260 | 0.0 | 0.0 | 0.00 | 0.00 | 0.00 | 80 | 1016.5 |
| 20260504021006 | 5 | 260 | 0.0 | 0.0 | 0.00 | 0.00 | 0.00 | 80 | 1016.4 |
| 20260504020502 | 5 | 260 | 0.0 | 0.0 | 0.00 | 0.00 | 0.00 | 78 | 1016.3 |
| 20260504015959 | 5 | 260 | 0.0 | 0.0 | 0.00 | 0.00 | 0.00 | 78 | 1016.2 |
| 20260504015455 | 5 | 260 | 0.0 | 0.0 | 0.00 | 0.00 | 0.00 | 77 | 1016.1 |
| 20260504014951 | 6 | 260 | 0.0 | 0.0 | 0.00 | 0.00 | 0.00 | 76 | 1016.2 |
| 20260504014447 | 6 | 260 | 0.0 | 0.0 | 0.00 | 0.00 | 0.00 | 75 | 1016.0 |
| 20260504013944 | 6 | 260 | 0.0 | 0.0 | 0.00 | 0.00 | 0.00 | 74 | 1016.1 |
| 20260504013443 | 6 | 260 | 0.0 | 0.0 | 0.00 | 0.00 | 0.00 | 75 | 1016.4 |
| 20260504012938 | 6 | 260 | 0.0 | 0.0 | 0.00 | 0.00 | 0.00 | 73 | 1016.2 |
| 20260504012437 | 6 | 260 | 0.0 | 0.0 | 0.00 | 0.00 | 0.00 | 74 | 1015.9 |
| 20260504011934 | 6 | 260 | 0.0 | 0.0 | 0.00 | 0.00 | 0.00 | 74 | 1015.9 |
| 20260504011431 | 6 | 260 | 0.0 | 0.0 | 0.00 | 0.00 | 0.00 | 73 | 1016.2 |
| 20260504010926 | 7 | 259 | 0.0 | 0.0 | 0.00 | 0.00 | 0.00 | 69 | 1016.0 |
| 20260504010423 | 7 | 259 | 0.0 | 0.0 | 0.00 | 0.00 | 0.00 | 67 | 1016.1 |
| 20260504005919 | 7 | 260 | 0.0 | 0.0 | 0.00 | 0.00 | 0.00 | 67 | 1016.0 |
| 20260504005415 | 7 | 259 | 0.0 | 0.0 | 0.00 | 0.00 | 0.00 | 64 | 1016.0 |
| 20260504004913 | 8 | 259 | 0.0 | 0.0 | 0.00 | 0.00 | 0.00 | 62 | 1016.0 |
| 20260504004411 | 8 | 261 | 0.0 | 0.0 | 0.00 | 0.00 | 0.00 | 62 | 1015.7 |
| 20260504003908 | 8 | 265 | 0.0 | 0.0 | 0.00 | 0.00 | 0.00 | 59 | 1016.1 |
| 20260504003404 | 10 | 264 | 0.0 | 0.0 | 0.00 | 0.00 | 0.00 | 57 | 1015.6 |
| 20260504002900 | 10 | 243 | 0.0 | 0.0 | 0.00 | 0.00 | 0.00 | 54 | 1015.5 |
| 20260504002358 | 10 | 260 | 0.0 | 0.0 | 0.00 | 0.00 | 0.00 | 54 | 1015.9 |
| 20260504001855 | 10 | 260 | 0.0 | 0.0 | 0.00 | 0.00 | 0.00 | 53 | 1015.6 |
| 20260504001353 | 10 | 269 | 0.0 | 0.0 | 0.00 | 0.00 | 0.00 | 54 | 1015.7 |
| 20260504000849 | 10 | 269 | 0.0 | 0.0 | 0.00 | 0.00 | 0.00 | 52 | 1015.6 |
| 20260504000346 | 10 | 273 | 0.0 | 0.0 | 0.00 | 0.00 | 0.00 | 54 | 1015.6 |
| 20260503235844 | 10 | 255 | 0.0 | 0.0 | 0.00 | 0.00 | 0.00 | 53 | 1016.0 |
| 20260503235341 | 10 | 271 | 0.0 | 0.0 | 0.00 | 0.00 | 0.00 | 54 | 1015.7 |
| 20260503234838 | 10 | 332 | 6.4 | 8.0 | 0.00 | 0.00 | 0.00 | 51 | 1015.7 |
| 20260503234336 | 11 | 238 | 4.8 | 4.8 | 0.00 | 0.00 | 0.00 | 51 | 1015.9 |
| 20260503233834 | 10 | 283 | 6.4 | 9.7 | 0.00 | 0.00 | 0.00 | 52 | 1015.9 |
| 20260503233330 | 11 | 319 | 4.8 | 4.8 | 0.00 | 0.00 | 0.00 | 54 | 1015.7 |
| 20260503232826 | 11 | 279 | 6.4 | 8.0 | 0.00 | 0.00 | 0.00 | 53 | 1015.9 |
| 20260503232324 | 11 | 252 | 8.0 | 11.3 | 0.00 | 0.00 | 0.00 | 52 | 1015.4 |
| 20260503231821 | 11 | 293 | 8.0 | 9.7 | 0.00 | 0.00 | 0.00 | 51 | 1015.9 |
| 20260503231318 | 11 | 279 | 8.0 | 11.3 | 0.00 | 0.00 | 0.00 | 50 | 1015.5 |
| 20260503230814 | 11 | 333 | 8.0 | 12.9 | 0.00 | 0.00 | 0.00 | 49 | 1015.6 |
| 20260503230311 | 12 | 288 | 8.0 | 9.7 | 0.00 | 0.00 | 0.00 | 50 | 1015.6 |
| 20260503225809 | 12 | 279 | 4.8 | 8.0 | 0.00 | 0.00 | 0.00 | 48 | 1015.4 |
| 20260503225305 | 12 | 26 | 14.5 | 16.1 | 0.00 | 0.00 | 0.00 | 49 | 1015.5 |
| 20260503224801 | 12 | 345 | 11.3 | 12.9 | 0.00 | 0.00 | 0.00 | 49 | 1015.7 |
| 20260503224259 | 12 | 285 | 3.2 | 3.2 | 0.00 | 0.00 | 0.00 | 51 | 1015.7 |
| 20260503223756 | 12 | 11 | 19.3 | 24.1 | 0.00 | 0.00 | 0.00 | 47 | 1015.9 |
| 20260503223254 | 12 | 16 | 17.7 | 20.9 | 0.00 | 0.00 | 0.00 | 47 | 1015.9 |
| 20260503222749 | 12 | 279 | 12.9 | 16.1 | 0.00 | 0.00 | 0.00 | 49 | 1015.9 |
| 20260503222247 | 12 | 284 | 6.4 | 9.7 | 0.00 | 0.00 | 0.00 | 47 | 1015.7 |
| 20260503221746 | 12 | 318 | 11.3 | 12.9 | 0.00 | 0.00 | 0.00 | 49 | 1015.6 |
| 20260503221243 | 12 | 333 | 11.3 | 12.9 | 0.00 | 0.00 | 0.00 | 50 | 1015.5 |
| 20260503220740 | 12 | 271 | 6.4 | 9.7 | 0.00 | 0.00 | 0.00 | 45 | 1015.5 |
| 20260503220237 | 12 | 281 | 14.5 | 17.7 | 0.00 | 0.00 | 0.00 | 49 | 1015.6 |
| 20260503215733 | 13 | 291 | 11.3 | 14.5 | 0.00 | 0.00 | 0.00 | 47 | 1015.6 |
| 20260503215230 | 13 | 277 | 3.2 | 3.2 | 0.00 | 0.00 | 0.00 | 48 | 1015.7 |
| 20260503214728 | 12 | 307 | 9.7 | 11.3 | 0.00 | 0.00 | 0.00 | 47 | 1015.6 |
| 20260503214225 | 12 | 288 | 11.3 | 16.1 | 0.00 | 0.00 | 0.00 | 50 | 1015.9 |
| 20260503213723 | 12 | 274 | 4.8 | 8.0 | 0.00 | 0.00 | 0.00 | 46 | 1015.7 |
| 20260503213220 | 12 | 303 | 6.4 | 11.3 | 0.00 | 0.00 | 0.00 | 47 | 1015.7 |
| 20260503212717 | 12 | 242 | 4.8 | 4.8 | 0.00 | 0.00 | 0.00 | 47 | 1015.9 |
| 20260503212215 | 12 | 266 | 3.2 | 8.0 | 0.00 | 0.00 | 0.00 | 47 | 1015.9 |
| 20260503211712 | 12 | 344 | 11.3 | 14.5 | 0.00 | 0.00 | 0.00 | 50 | 1016.0 |
| 20260503211208 | 12 | 353 | 16.1 | 17.7 | 0.00 | 0.00 | 0.00 | 45 | 1016.0 |
| 20260503210703 | 12 | 312 | 11.3 | 14.5 | 0.00 | 0.00 | 0.00 | 46 | 1015.7 |
| 20260503210201 | 12 | 278 | 6.4 | 8.0 | 0.00 | 0.00 | 0.00 | 49 | 1016.0 |
| 20260503205656 | 12 | 285 | 8.0 | 11.3 | 0.00 | 0.00 | 0.00 | 47 | 1015.6 |
| 20260503205153 | 12 | 336 | 11.3 | 12.9 | 0.00 | 0.00 | 0.00 | 48 | 1016.1 |
| 20260503204649 | 12 | 290 | 19.3 | 22.5 | 0.00 | 0.00 | 0.00 | 48 | 1016.1 |
| 20260503204147 | 12 | 301 | 4.8 | 4.8 | 0.00 | 0.00 | 0.00 | 50 | 1015.7 |
| 20260503203644 | 11 | 340 | 17.7 | 22.5 | 0.00 | 0.00 | 0.00 | 51 | 1016.0 |
| 20260503203142 | 11 | 272 | 12.9 | 16.1 | 0.00 | 0.00 | 0.00 | 50 | 1016.0 |
| 20260503202638 | 12 | 352 | 20.9 | 27.4 | 0.00 | 0.00 | 0.00 | 48 | 1016.1 |
| 20260503202137 | 11 | 278 | 14.5 | 20.9 | 0.00 | 0.00 | 0.00 | 47 | 1016.1 |
| 20260503201634 | 12 | 343 | 11.3 | 12.9 | 0.00 | 0.00 | 0.00 | 49 | 1016.2 |
| 20260503201132 | 12 | 354 | 9.7 | 12.9 | 0.00 | 0.00 | 0.00 | 48 | 1016.0 |
| 20260503200627 | 11 | 19 | 9.7 | 11.3 | 0.00 | 0.00 | 0.00 | 49 | 1016.4 |
| 20260503200124 | 12 | 348 | 12.9 | 14.5 | 0.00 | 0.00 | 0.00 | 51 | 1016.3 |
| 20260503195621 | 11 | 1 | 17.7 | 22.5 | 0.00 | 0.00 | 0.00 | 47 | 1016.1 |
| 20260503195118 | 11 | 321 | 12.9 | 14.5 | 0.00 | 0.00 | 0.00 | 49 | 1016.3 |
| 20260503194615 | 11 | 258 | 8.0 | 9.7 | 0.00 | 0.00 | 0.00 | 49 | 1016.3 |
| 20260503194110 | 11 | 332 | 14.5 | 16.1 | 0.00 | 0.00 | 0.00 | 49 | 1016.5 |
| 20260503193607 | 12 | 325 | 12.9 | 20.9 | 0.00 | 0.00 | 0.00 | 51 | 1016.7 |
| 20260503193102 | 11 | 301 | 11.3 | 14.5 | 0.00 | 0.00 | 0.00 | 51 | 1016.6 |
| 20260503192559 | 11 | 350 | 17.7 | 20.9 | 0.00 | 0.00 | 0.00 | 47 | 1016.9 |
| 20260503192054 | 11 | 258 | 9.7 | 12.9 | 0.00 | 0.00 | 0.00 | 49 | 1016.8 |
| 20260503191551 | 10 | 291 | 11.3 | 14.5 | 0.00 | 0.00 | 0.00 | 50 | 1016.5 |
| 20260503191048 | 10 | 275 | 11.3 | 11.3 | 0.00 | 0.00 | 0.00 | 48 | 1016.6 |
| 20260503190545 | 11 | 309 | 14.5 | 20.9 | 0.00 | 0.00 | 0.00 | 50 | 1016.8 |
| 20260503190043 | 11 | 337 | 11.3 | 14.5 | 0.00 | 0.00 | 0.00 | 51 | 1016.6 |
| 20260503185539 | 11 | 316 | 16.1 | 20.9 | 0.00 | 0.00 | 0.00 | 51 | 1016.7 |
| 20260503185038 | 10 | 315 | 14.5 | 16.1 | 0.00 | 0.00 | 0.00 | 53 | 1016.9 |
| 20260503184535 | 10 | 270 | 11.3 | 12.9 | 0.00 | 0.00 | 0.00 | 53 | 1017.0 |
| 20260503184032 | 11 | 53 | 11.3 | 14.5 | 0.00 | 0.00 | 0.00 | 52 | 1017.0 |
| 20260503183528 | 11 | 303 | 12.9 | 16.1 | 0.00 | 0.00 | 0.00 | 54 | 1017.1 |
| 20260503183025 | 10 | 347 | 19.3 | 24.1 | 0.00 | 0.00 | 0.00 | 52 | 1017.1 |
| 20260503182524 | 11 | 25 | 16.1 | 20.9 | 0.00 | 0.00 | 0.00 | 52 | 1017.2 |
| 20260503182021 | 11 | 308 | 14.5 | 17.7 | 0.00 | 0.00 | 0.00 | 54 | 1017.1 |
| 20260503181518 | 10 | 288 | 12.9 | 16.1 | 0.00 | 0.00 | 0.00 | 53 | 1017.1 |
| 20260503181014 | 10 | 308 | 8.0 | 11.3 | 0.00 | 0.00 | 0.00 | 53 | 1017.2 |
| 20260503180512 | 10 | 330 | 14.5 | 17.7 | 0.00 | 0.00 | 0.00 | 53 | 1017.2 |
| 20260503180009 | 10 | 351 | 11.3 | 14.5 | 0.00 | 0.00 | 0.00 | 52 | 1017.4 |
| 20260503175507 | 10 | 308 | 22.5 | 24.1 | 0.00 | 0.00 | 0.00 | 53 | 1017.4 |
| 20260503175003 | 10 | 296 | 8.0 | 11.3 | 0.00 | 0.00 | 0.00 | 54 | 1017.1 |
| 20260503174501 | 10 | 300 | 17.7 | 20.9 | 0.00 | 0.00 | 0.00 | 51 | 1017.1 |
| 20260503173956 | 9 | 266 | 6.4 | 8.0 | 0.00 | 0.00 | 0.00 | 50 | 1017.4 |
| 20260503173452 | 10 | 303 | 12.9 | 14.5 | 0.00 | 0.00 | 0.00 | 55 | 1017.7 |
| 20260503172949 | 10 | 2 | 16.1 | 16.1 | 0.00 | 0.00 | 0.00 | 52 | 1017.6 |
| 20260503172446 | 10 | 284 | 8.0 | 11.3 | 0.00 | 0.00 | 0.00 | 52 | 1017.7 |
| 20260503171943 | 10 | 318 | 14.5 | 17.7 | 0.00 | 0.00 | 0.00 | 56 | 1017.7 |
| 20260503171439 | 9 | 294 | 12.9 | 17.7 | 0.00 | 0.00 | 0.00 | 58 | 1017.7 |
| 20260503170937 | 9 | 348 | 11.3 | 16.1 | 0.00 | 0.00 | 0.00 | 56 | 1017.6 |
| 20260503170433 | 9 | 287 | 8.0 | 9.7 | 0.00 | 0.00 | 0.00 | 56 | 1017.6 |
| 20260503150825 | 7 | 290 | 8.0 | 12.9 | 0.00 | 0.00 | 0.00 | 58 | 1018.3 |
| 20260503150321 | 7 | 239 | 17.7 | 22.5 | 0.00 | 0.00 | 0.00 | 60 | 1018.5 |
| 20260503140246 | 5 | 333 | 14.5 | 16.1 | 0.00 | 0.00 | 0.00 | 68 | 1018.2 |
| 20260503131215 | 3 | 359 | 16.1 | 17.7 | 0.00 | 0.00 | 0.00 | 77 | 1018.5 |
| 20260503130713 | 3 | 336 | 19.3 | 25.7 | 0.00 | 0.00 | 0.00 | 77 | 1018.7 |
| 20260503130210 | 3 | 9 | 20.9 | 25.7 | 0.00 | 0.00 | 0.00 | 78 | 1018.3 |
| 20260503120136 | 2 | 352 | 11.3 | 14.5 | 0.00 | 0.00 | 0.00 | 86 | 1018.1 |
| 20260503110603 | 0 | 295 | 4.8 | 4.8 | 0.00 | 0.00 | 0.00 | 93 | 1017.6 |
| 20260503090450 | 0 | 259 | 1.6 | 1.6 | 0.00 | 0.00 | 0.00 | 94 | 1016.6 |
| 20260503081416 | 0 | 256 | 0.0 | 0.0 | 0.00 | 0.00 | 0.00 | 92 | 1016.4 |
| 20260503080914 | 0 | 269 | 1.6 | 1.6 | 0.00 | 0.00 | 0.00 | 91 | 1016.3 |
| 20260503080410 | 1 | 265 | 1.6 | 1.6 | 0.00 | 0.00 | 0.00 | 91 | 1016.3 |
| 20260503072846 | 1 | 303 | 4.8 | 8.0 | 0.00 | 0.00 | 0.00 | 89 | 1015.9 |
| 20260503072343 | 1 | 265 | 1.6 | 1.6 | 0.00 | 0.00 | 0.00 | 88 | 1016.0 |
| 20260503071840 | 1 | 262 | 1.6 | 1.6 | 0.00 | 0.00 | 0.00 | 88 | 1016.1 |
| 20260503071337 | 1 | 257 | 0.0 | 0.0 | 0.00 | 0.00 | 0.00 | 88 | 1016.0 |
| 20260503070833 | 1 | 296 | 3.2 | 4.8 | 0.00 | 0.00 | 0.00 | 87 | 1016.1 |
| 20260503070332 | 1 | 267 | 3.2 | 3.2 | 0.00 | 0.00 | 0.00 | 88 | 1016.1 |